[[{"header":{"parameterUnit":"m.s-1","parameterCategory":2,"la1":30.2991,"la2":30.254,"lo1":-89.0895,"lo2":-89.0444,"dy":0.0017,"dx":0.0017,"nx":28,"ny":28,"refTime":"2024-06-27T03:00:00:Z","depth":"0","parameterNumber":2,"parameterNumberName":"U-component_of_CURRENTS"},"data":[0,0,0,0,0,0,0,0,0,0,0,0,0,0,0,0,0,0,0,0,0,0,0,0,0,0,0,0,0,0,0,0,0,0,0,0,0,0,0,0,0,0,0,0,0,0,0,0,0,0,0,0,0,0,0,0,0,0,0.3847,0.3849,0,0.3952,0.3953,0.3954,0.393,0.3928,0.3927,0.3925,0.4044,0.4048,0.4053,0,0,0,0,0,0,0,0,0,0,0,0,0,0.3474,0.3481,0.3847,0.3849,0.3851,0.3952,0.3953,0.3954,0.393,0.3928,0.3926,0.3925,0.4042,0.4048,0.4053,0,0,0,0,0,0,0,0,0,0,0,0,0,0.3609,0.3484,0.3847,0.3854,0.3856,0.3952,0.3953,0.3954,0.3931,0.3928,0.3926,0.3924,0.4041,0.4047,0.4054,0.4145,0,0,0.4075,0.4079,0,0,0,0,0,0,0,0,0.3602,0.3623,0.3852,0.3854,0.3856,0.3929,0.3865,0.402,0.3931,0.3898,0.3925,0.3922,0.4012,0.4021,0.4039,0.415,0.4155,0.4076,0.408,0.4083,0.4085,0,0,0,0,0,0,0,0.3593,0.3617,0.3884,0.3854,0.3857,0.38,0.3818,0.3893,0.3964,0.3901,0.39,0.392,0.4012,0.4033,0.4042,0.4157,0.4076,0.4082,0.4086,0.4089,0.4262,0.4263,0,0,0,0,0,0,0.3601,0.3611,0.3881,0.3888,0.3725,0.381,0.3829,0.3905,0.3963,0.397,0.3921,0.3918,0.4022,0.4034,0.4046,0.4104,0.4083,0.409,0.4094,0.4262,0.4262,0.4263,0,0,0,0,0,0,0.3594,0.3627,0.3877,0.375,0.3778,0.382,0.3904,0.3908,0.3932,0.3979,0.3985,0.3942,0.4021,0.4036,0.412,0.411,0.4093,0.4099,0.4261,0.4262,0.4262,0.4254,0,0,0,0,0,0,0.3584,0.3625,0.3666,0.3754,0.3786,0.3928,0.3907,0.3912,0.395,0.3946,0.4,0.4007,0.402,0.4109,0.4127,0.412,0.4105,0.4261,0.4261,0.4262,0.4254,0.4255,0.4255,0,0,0,0,0,0.3571,0.363,0.3669,0.37,0.3851,0.393,0.394,0.3955,0.3953,0.3967,0.401,0.4006,0.4123,0.4118,0.4137,0.4132,0.426,0.4261,0.4262,0.4254,0.4255,0.4255,0,0,0,0,0,0,0.3454,0.3638,0.368,0.3785,0.3854,0.3927,0.3939,0.3971,0.4018,0.4015,0.405,0.4063,0.4116,0.4142,0.4134,0.4179,0.4177,0.4182,0.4164,0.4165,0.4165,0.4191,0.411,0,0,0,0,0,0.3466,0.3579,0.3705,0.378,0.3821,0.3889,0.392,0.3949,0.4009,0.4025,0.4059,0.4096,0.4139,0.4168,0.4205,0.427,0.4293,0.4266,0.4266,0.4266,0.4299,0.4303,0.4307,0.4266,0.4266,0.4266,0,0,0.3423,0.3551,0.36,0.3765,0.3816,0.3873,0.39,0.396,0.3994,0.4038,0.4077,0.4112,0.4159,0.4201,0.4225,0.4223,0.4293,0.4268,0.4268,0.4301,0.4304,0.4308,0.4312,0.4266,0.4266,0.4266,0,0,0.3408,0.353,0.3614,0.3688,0.3806,0.3857,0.3882,0.3972,0.3994,0.4075,0.4084,0.414,0.4206,0.4231,0.4257,0.43,0.4295,0.4277,0.4309,0.4311,0.4314,0.4318,0.4363,0.4371,0.4276,0.4276,0.4276,0,0.3333,0.3501,0.3628,0.3716,0.3761,0.3853,0.39,0.3952,0.4045,0.4076,0.408,0.4183,0.4225,0.4285,0.429,0.4303,0.4308,0.43,0.4311,0.4315,0.4319,0.4365,0.4373,0.4276,0.4276,0.4276,0.4276,0,0.3381,0.3504,0.3546,0.3709,0.3759,0.3823,0.3917,0.3964,0.4012,0.4064,0.4139,0.421,0.4272,0.4272,0.4311,0.4345,0.4344,0.4308,0.4308,0.4322,0.437,0.4379,0.4276,0.4276,0.4276,0.4276,0,0,0.3243,0.3527,0.3545,0.3617,0.377,0.3811,0.388,0.3973,0.4007,0.4097,0.4149,0.4244,0.4287,0.4322,0.4354,0.4374,0.4419,0.4357,0.4358,0.4403,0.4446,0.4363,0.4366,0.436,0.4361,0.4362,0.4473,0,0.3233,0.3418,0.3548,0.3638,0.3719,0.3816,0.3858,0.3942,0.4018,0.4086,0.4189,0.4253,0.43,0.4334,0.4369,0.4425,0.444,0.4396,0.4428,0.4431,0.4354,0.4372,0.4134,0.4204,0.4482,0.4483,0.4484,0,0.3226,0.3375,0.3497,0.3651,0.368,0.3715,0.3799,0.3862,0.3986,0.4047,0.4156,0.4234,0.4367,0.4354,0.4485,0.4446,0.4454,0.4475,0.4477,0.4416,0.4364,0.4233,0.421,0.4164,0.4498,0.4497,0.4496,0,0.3094,0.3311,0.3416,0.3471,0.3652,0.3676,0.3735,0.3839,0.3892,0.4036,0.409,0.4244,0.4326,0.4394,0.4519,0.4485,0.4619,0.4566,0.4498,0.4494,0.4313,0.429,0.4249,0.459,0.459,0.4589,0.4589,0,0.305,0.3117,0.3367,0.3417,0.3475,0.3597,0.3634,0.3719,0.3835,0.3881,0.4064,0.4121,0.4325,0.4444,0.4523,0.4584,0.4631,0.4531,0.4512,0.4304,0.428,0.4249,0.4236,0.4594,0.4593,0.4592,0.4591,0,0.2898,0.3077,0.3188,0.3384,0.3429,0.3457,0.3578,0.3605,0.3732,0.3805,0.3859,0.4059,0.4211,0.441,0.4539,0.4567,0.4517,0.4616,0.4398,0.435,0.4205,0.42,0.4017,0.392,0.4561,0.456,0.4558,0,0.284,0.2905,0.3131,0.3189,0.3277,0.3357,0.3396,0.3535,0.3577,0.3736,0.3757,0.3942,0.4023,0.4263,0.4362,0.4505,0.4423,0.4341,0.422,0.4186,0.4169,0.403,0.3953,0.3996,0.3991,0.3986,0.3982,0,0.2703,0.2796,0.292,0.3064,0.3127,0.3199,0.3275,0.3294,0.3436,0.3487,0.3556,0.3631,0.3846,0.3894,0.4103,0.4152,0.4135,0.4243,0.4236,0.3757,0.3573,0.3472,0.3991,0.394,0.3944,0.3947,0.395,0.3951,0.2574,0.2628,0.2802,0.2911,0.2984,0.301,0.2974,0.3057,0.3074,0.309,0.3269,0.3292,0.348,0.3717,0.377,0.3778,0.3798,0.3693,0.3711,0.3593,0.3409,0.3869,0.3767,0.377,0.3773,0.3775,0.3777,0,0.2408,0.2511,0.2624,0.2731,0.2719,0.2826,0.2854,0.2775,0.2696,0.282,0.2834,0.2967,0.3019,0.3222,0.3358,0.3294,0.3143,0.326,0.3016,0.2984,0.3415,0.3302,0.3056,0.3056,0.3056,0.3056,0.3056,0.3056,0.2335,0.2382,0.2472,0.2437,0.2481,0.2372,0.2334,0.2274,0.2321,0.2313,0.238,0.2495,0.2867,0.3054,0.307,0.3,0.2855,0.2669,0.2786,0.3118,0.316,0.32,0.3091,0.2805,0.2805,0.2167,0.2162,0.2159]},{"header":{"parameterUnit":"m.s-1","parameterCategory":2,"la1":30.2991,"la2":30.254,"lo1":-89.0895,"lo2":-89.0444,"dy":0.0017,"dx":0.0017,"nx":28,"ny":28,"refTime":"2024-06-27T03:00:00:Z","depth":"0","parameterNumber":3,"parameterNumberName":"V-component_of_CURRENTS"},"data":[0,0,0,0,0,0,0,0,0,0,0,0,0,0,0,0,0,0,0,0,0,0,0,0,0,0,0,0,0,0,0,0,0,0,0,0,0,0,0,0,0,0,0,0,0,0,0,0,0,0,0,0,0,0,0,0,0,0,0.0314,0.0313,0,0.0155,0.0153,0.0151,0.004,0.004,0.0039,0.0039,-0.0081,-0.0084,-0.0087,0,0,0,0,0,0,0,0,0,0,0,0,0,0.041,0.041,0.0314,0.0313,0.0311,0.0156,0.0153,0.015,0.004,0.004,0.0039,0.0038,-0.0081,-0.0084,-0.0087,0,0,0,0,0,0,0,0,0,0,0,0,0,0.0319,0.0409,0.0314,0.024,0.0232,0.0156,0.0153,0.015,0.004,0.004,0.0039,0.0038,-0.008,-0.0083,-0.0087,-0.0096,0,0,-0.01,-0.0102,0,0,0,0,0,0,0,0,0.0324,0.0315,0.0252,0.0245,0.0236,0.012,0.0143,0.0071,0.0041,0.0109,0.0039,0.0038,-0.0008,-0.0018,-0.0051,-0.0102,-0.0107,-0.01,-0.0103,-0.0104,-0.0105,0,0,0,0,0,0,0,0.0331,0.0321,0.0248,0.0251,0.024,0.0176,0.0163,0.0128,0.0056,0.0103,0.0096,0.0084,-0.0013,-0.0047,-0.0055,-0.0109,-0.01,-0.0104,-0.0106,-0.0108,-0.0122,-0.012,0,0,0,0,0,0,0.0364,0.0328,0.0253,0.0243,0.0283,0.0176,0.016,0.0155,0.0055,0.0039,0.0085,0.0079,-0.004,-0.005,-0.0059,-0.0021,-0.0104,-0.0108,-0.011,-0.0124,-0.0121,-0.0119,0,0,0,0,0,0,0.0367,0.0359,0.0259,0.0284,0.0267,0.0176,0.017,0.0152,0.0127,0.0041,0.0025,0.0079,-0.0041,-0.0054,-0.0081,-0.0029,-0.011,-0.0114,-0.0126,-0.0123,-0.012,0.002,0,0,0,0,0,0,0.0371,0.0362,0.0365,0.0287,0.0267,0.023,0.017,0.015,0.0122,0.0113,0.0031,0.0018,-0.0043,-0.0074,-0.0084,-0.0036,-0.0117,-0.0129,-0.0125,-0.0121,0.0013,0.0028,0.004,0,0,0,0,0,0.0375,0.0379,0.0366,0.0356,0.0276,0.0231,0.0215,0.0144,0.0123,0.0117,0.0063,0.0021,-0.0056,-0.0076,-0.0089,-0.004,-0.0131,-0.0126,-0.0122,0.0007,0.0025,0.004,0,0,0,0,0,0,0.0412,0.0367,0.035,0.0339,0.03,0.0214,0.0196,0.0163,0.0113,0.0106,0.0031,0.0015,0.0016,-0.0031,-0.0051,-0.0031,-0.0093,-0.0091,0.0009,0.0025,0.0038,0.0084,-0.012,0,0,0,0,0,0.043,0.0426,0.0374,0.0366,0.0353,0.0285,0.0257,0.0217,0.0164,0.014,0.009,0.0047,0.0025,0.0008,-0.0028,-0.0025,-0.0066,0.0004,0.0018,0.003,0.0059,0.002,0.0033,-0.0104,-0.0104,-0.0104,0,0,0.0441,0.0416,0.0413,0.0375,0.0335,0.0325,0.0265,0.0236,0.0239,0.0139,0.0131,0.009,0.0036,0.0038,0.0037,0.0005,0.0049,0.0035,0.0046,0.007,0.0026,0.0039,0.0051,-0.0101,-0.0102,-0.0102,0,0,0.0462,0.0446,0.0451,0.043,0.039,0.0357,0.0363,0.0302,0.0288,0.0275,0.0219,0.0214,0.0159,0.0141,0.0125,0.0197,0.0123,0.0188,0.0292,0.0254,0.0264,0.0273,0.0248,0.0254,0.0195,0.0195,0.0195,0,0.0473,0.0478,0.0444,0.0443,0.0437,0.0386,0.0396,0.0378,0.032,0.0336,0.0294,0.0269,0.0217,0.025,0.0272,0.0232,0.0193,0.0232,0.0272,0.028,0.0286,0.0258,0.0262,0.0202,0.0201,0.0201,0.02,0,0.0497,0.0503,0.0505,0.05,0.0493,0.0491,0.0474,0.0481,0.0469,0.0455,0.0489,0.0426,0.0416,0.0408,0.0358,0.0404,0.0355,0.0292,0.0231,0.0309,0.0274,0.0276,0.0213,0.021,0.0208,0.0206,0,0,0.0515,0.0522,0.0523,0.0542,0.0528,0.0527,0.0564,0.0588,0.063,0.0607,0.0668,0.0644,0.0626,0.0609,0.0559,0.0536,0.0547,0.0446,0.044,0.0425,0.0468,0.0445,0.0443,0.0476,0.0477,0.0478,0.0428,0,0.0543,0.0568,0.0567,0.0609,0.0626,0.0622,0.0665,0.0688,0.0702,0.0748,0.0743,0.0763,0.0699,0.07,0.0678,0.0587,0.0557,0.0568,0.0393,0.0389,0.036,0.0447,0.039,0.0342,0.0429,0.0429,0.0429,0,0.0572,0.0587,0.0631,0.0686,0.0696,0.072,0.0796,0.0825,0.0886,0.0904,0.0943,0.0922,0.0944,0.0845,0.0763,0.0768,0.064,0.0553,0.0547,0.0482,0.037,0.0275,0.0341,0.02,0.0431,0.0431,0.0431,0,0.061,0.0643,0.0689,0.0699,0.0743,0.0785,0.0816,0.0876,0.0937,0.1003,0.1052,0.1063,0.1065,0.0952,0.0813,0.0772,0.0696,0.06,0.0462,0.0457,0.0358,0.0345,0.0272,0.0511,0.0511,0.0512,0.0512,0,0.0649,0.0687,0.0711,0.0733,0.0811,0.0827,0.0925,0.0962,0.1048,0.1139,0.1133,0.1194,0.1082,0.1033,0.0876,0.0718,0.074,0.0516,0.0455,0.0407,0.0399,0.0228,0.0139,0.051,0.051,0.051,0.0511,0,0.0689,0.0701,0.0757,0.0807,0.0829,0.0884,0.0985,0.1067,0.1125,0.1243,0.1274,0.1301,0.1234,0.1119,0.0936,0.0793,0.0541,0.0547,0.0521,0.0459,0.0194,0.0115,0.0001,-0.0058,0.0397,0.0397,0.0396,0,0.0714,0.0743,0.0803,0.0844,0.0868,0.0948,0.1022,0.11,0.1192,0.1304,0.1375,0.1358,0.1356,0.1141,0.0891,0.0658,0.0498,0.0429,0.0339,0.0215,0.008,0.0043,-0.0001,0.0256,0.0255,0.0253,0.0252,0,0.0764,0.0783,0.0827,0.0907,0.098,0.1074,0.1176,0.1258,0.1364,0.145,0.1534,0.1534,0.1332,0.1089,0.0793,0.0611,0.0331,0.0391,0.0254,-0.0015,-0.0054,-0.0153,0.0266,0.024,0.0241,0.0242,0.0243,0.0243,0.0802,0.0846,0.0908,0.0993,0.1078,0.12,0.1282,0.1388,0.1523,0.1634,0.1618,0.1625,0.1279,0.0869,0.0622,0.0181,0.0197,-0.0002,-0.0081,-0.0099,-0.0166,0.0256,0.0165,0.0166,0.0167,0.0167,0.0168,0,0.085,0.0914,0.0996,0.1105,0.1212,0.1247,0.1397,0.1476,0.1606,0.1686,0.1715,0.1571,0.11,0.0702,0.0098,-0.023,-0.0329,-0.0397,-0.0485,-0.0504,-0.0152,-0.0168,-0.0324,-0.0324,-0.0323,-0.0323,-0.0323,-0.0323,0.088,0.0974,0.1029,0.1215,0.1292,0.1429,0.151,0.1602,0.1683,0.1775,0.1796,0.1782,0.1542,0.0327,-0.0422,-0.0603,-0.0795,-0.0875,-0.092,-0.0723,-0.0692,-0.0663,-0.0697,-0.0961,-0.0962,-0.1246,-0.125,-0.1252]}],[{"header":{"parameterUnit":"m.s-1","parameterCategory":2,"la1":30.2991,"la2":30.254,"lo1":-89.0895,"lo2":-89.0444,"dy":0.0017,"dx":0.0017,"nx":28,"ny":28,"refTime":"2024-06-27T03:00:00:Z","depth":"2","parameterNumber":2,"parameterNumberName":"U-component_of_CURRENTS"},"data":[0,0,0,0,0,0,0,0,0,0,0,0,0,0,0,0,0,0,0,0,0,0,0,0,0,0,0,0,0,0,0,0,0,0,0,0,0,0,0,0,0,0,0,0,0,0,0,0,0,0,0,0,0,0,0,0,0,0,0.3067,0.3066,0,0.3006,0.3006,0.3005,0.2974,0.2974,0.2974,0.2974,0.3085,0.3087,0.309,0,0,0,0,0,0,0,0,0,0,0,0,0,0.2939,0.2943,0.3067,0.3066,0.3066,0.3007,0.3006,0.3005,0.2974,0.2974,0.2974,0.2974,0.3084,0.3087,0.309,0,0,0,0,0,0,0,0,0,0,0,0,0,0.2948,0.2944,0.3067,0.3044,0.3041,0.3007,0.3006,0.3004,0.2974,0.2974,0.2974,0.2974,0.3082,0.3087,0.3091,0.3115,0,0,0.3104,0.3106,0,0,0,0,0,0,0,0,0.2948,0.2952,0.3048,0.3046,0.3043,0.2999,0.3001,0.305,0.2974,0.2998,0.2974,0.2974,0.3073,0.3078,0.3062,0.312,0.3125,0.3104,0.3107,0.3109,0.311,0,0,0,0,0,0,0,0.2947,0.2953,0.3042,0.3047,0.3044,0.2962,0.2966,0.3008,0.3038,0.2996,0.2994,0.2989,0.3072,0.3057,0.3065,0.3127,0.3104,0.3108,0.3111,0.3113,0.3423,0.3428,0,0,0,0,0,0,0.297,0.2955,0.3044,0.304,0.2996,0.2966,0.2969,0.3012,0.3033,0.3036,0.2989,0.2988,0.305,0.306,0.3069,0.3198,0.3109,0.3113,0.3115,0.3417,0.3424,0.343,0,0,0,0,0,0,0.2968,0.298,0.3046,0.2993,0.2996,0.297,0.3016,0.301,0.2997,0.3026,0.3032,0.2981,0.305,0.3063,0.3181,0.3199,0.3115,0.3119,0.3411,0.3419,0.3427,0.3395,0,0,0,0,0,0,0.2965,0.2981,0.3014,0.2997,0.3,0.3033,0.3016,0.3009,0.2994,0.2992,0.3022,0.3032,0.3051,0.3175,0.3185,0.3203,0.3122,0.3403,0.3415,0.3425,0.3389,0.3401,0.3412,0,0,0,0,0,0.2962,0.2988,0.3017,0.3027,0.3051,0.3033,0.3027,0.3004,0.2994,0.2991,0.3068,0.3031,0.3249,0.3183,0.3193,0.3213,0.3398,0.3411,0.3424,0.3384,0.3399,0.3411,0,0,0,0,0,0,0.2902,0.2988,0.3018,0.3061,0.3059,0.3028,0.3017,0.3005,0.305,0.3067,0.3095,0.3113,0.3199,0.3255,0.3181,0.3352,0.3321,0.3336,0.3287,0.3301,0.3313,0.3383,0.3126,0,0,0,0,0,0.2923,0.2998,0.3024,0.3053,0.3062,0.3045,0.3033,0.3027,0.3058,0.3071,0.3153,0.3233,0.3259,0.332,0.337,0.3479,0.348,0.3514,0.3525,0.3534,0.3612,0.3562,0.3572,0.3472,0.3472,0.3472,0,0,0.2907,0.2959,0.2999,0.305,0.3048,0.3073,0.3038,0.3029,0.307,0.3086,0.3228,0.3253,0.3292,0.3394,0.3444,0.3449,0.3573,0.355,0.3555,0.3631,0.3576,0.3584,0.3591,0.3481,0.3479,0.3478,0,0,0.2898,0.2963,0.3025,0.3062,0.3088,0.3072,0.3077,0.3119,0.3157,0.3273,0.3281,0.3372,0.3478,0.3525,0.3537,0.3668,0.3598,0.3669,0.3812,0.3758,0.3763,0.3768,0.3785,0.3791,0.3714,0.3714,0.3714,0,0.2864,0.296,0.3018,0.3087,0.3104,0.3083,0.3112,0.3149,0.3248,0.3312,0.3338,0.3516,0.354,0.3616,0.3684,0.3682,0.3663,0.3717,0.376,0.3765,0.377,0.3786,0.3793,0.3714,0.3714,0.3714,0.3714,0,0.2921,0.2998,0.3019,0.3129,0.3154,0.3159,0.3226,0.3298,0.3346,0.3411,0.355,0.3636,0.3752,0.3752,0.376,0.383,0.3806,0.372,0.3687,0.3775,0.3791,0.3798,0.3714,0.3714,0.3714,0.3714,0,0,0.2814,0.3018,0.3029,0.3094,0.3175,0.3186,0.3279,0.3339,0.3402,0.3571,0.3682,0.3799,0.3877,0.3913,0.393,0.3954,0.396,0.3893,0.389,0.3852,0.3884,0.3648,0.3633,0.3828,0.3829,0.3831,0.3877,0,0.2807,0.2957,0.3045,0.3128,0.319,0.3244,0.333,0.3418,0.3496,0.3637,0.3749,0.3858,0.3915,0.3965,0.4004,0.3977,0.3982,0.3961,0.3866,0.3868,0.359,0.3633,0.3439,0.3443,0.3884,0.3886,0.3886,0,0.283,0.2922,0.3039,0.3169,0.3195,0.3243,0.3338,0.3422,0.359,0.3676,0.3842,0.3925,0.4102,0.4053,0.414,0.4114,0.4033,0.3996,0.3992,0.3803,0.3643,0.3437,0.3439,0.3899,0.3898,0.3897,0.3896,0,0.2756,0.2901,0.2984,0.3045,0.3197,0.3246,0.3297,0.3451,0.353,0.3719,0.3795,0.3999,0.4093,0.4097,0.4162,0.411,0.4182,0.4054,0.3774,0.3759,0.3606,0.3571,0.4014,0.4014,0.4014,0.4014,0.4014,0,0.273,0.2781,0.2968,0.3032,0.3104,0.323,0.331,0.3411,0.3553,0.3636,0.3833,0.3919,0.4088,0.4177,0.4178,0.4073,0.4192,0.3839,0.3745,0.3593,0.3558,0.397,0.3964,0.4016,0.4015,0.4015,0.4015,0,0.2656,0.278,0.289,0.3056,0.31,0.3172,0.3302,0.3352,0.3504,0.3608,0.3674,0.3883,0.3977,0.4134,0.4145,0.4038,0.398,0.3867,0.3736,0.362,0.3588,0.3582,0.354,0.3532,0.3525,0.3519,0.3514,0,0.2619,0.269,0.2913,0.2967,0.3034,0.3138,0.3189,0.3333,0.3378,0.3554,0.3583,0.3735,0.3757,0.3801,0.3747,0.3707,0.3812,0.3375,0.3192,0.3622,0.3536,0.3541,0.3544,0.302,0.3012,0.3005,0.2999,0,0.2516,0.2634,0.2751,0.2903,0.2971,0.3037,0.3118,0.3142,0.3275,0.3316,0.3348,0.3367,0.3424,0.3297,0.3265,0.3194,0.3388,0.3207,0.3709,0.3121,0.3119,0.3039,0.3062,0.2937,0.2944,0.2948,0.2952,0.2954,0.2421,0.249,0.2671,0.2783,0.2864,0.2884,0.2846,0.2897,0.2895,0.2884,0.3019,0.2928,0.2984,0.2764,0.2712,0.2701,0.2839,0.2703,0.2731,0.2765,0.2646,0.2625,0.2337,0.234,0.2342,0.2344,0.2346,0,0.2255,0.2362,0.2494,0.261,0.2608,0.2719,0.2724,0.2618,0.2488,0.2576,0.2516,0.2278,0.2177,0.23,0.2153,0.2055,0.2119,0.1987,0.2109,0.217,0.2225,0.2085,0.1624,0.1622,0.1619,0.1617,0,0,0.2172,0.2217,0.2311,0.2284,0.2349,0.2239,0.2182,0.2083,0.2086,0.1961,0.1913,0.2018,0.2153,0.1836,0.1815,0.1715,0.1932,0.1648,0.2234,0.2441,0.2492,0.2646,0.2496,0,0,0,0,0]},{"header":{"parameterUnit":"m.s-1","parameterCategory":2,"la1":30.2991,"la2":30.254,"lo1":-89.0895,"lo2":-89.0444,"dy":0.0017,"dx":0.0017,"nx":28,"ny":28,"refTime":"2024-06-27T03:00:00:Z","depth":"2","parameterNumber":3,"parameterNumberName":"V-component_of_CURRENTS"},"data":[0,0,0,0,0,0,0,0,0,0,0,0,0,0,0,0,0,0,0,0,0,0,0,0,0,0,0,0,0,0,0,0,0,0,0,0,0,0,0,0,0,0,0,0,0,0,0,0,0,0,0,0,0,0,0,0,0,0,0.0052,0.0051,0,-0.0093,-0.0096,-0.0098,-0.018,-0.0179,-0.0179,-0.0178,-0.0308,-0.0312,-0.0316,0,0,0,0,0,0,0,0,0,0,0,0,0,0.0196,0.0194,0.0052,0.0051,0.005,-0.0093,-0.0096,-0.0098,-0.018,-0.0179,-0.0179,-0.0178,-0.0307,-0.0312,-0.0316,0,0,0,0,0,0,0,0,0,0,0,0,0,0.0094,0.0193,0.0052,-0.0003,-0.0008,-0.0092,-0.0096,-0.0099,-0.018,-0.0179,-0.0178,-0.0178,-0.0306,-0.0311,-0.0317,-0.0365,0,0,-0.0335,-0.0337,0,0,0,0,0,0,0,0,0.01,0.0088,0.0007,0.0001,-0.0005,-0.0111,-0.0092,-0.0185,-0.018,-0.0123,-0.0178,-0.0178,-0.0237,-0.0248,-0.0288,-0.0371,-0.0377,-0.0335,-0.0339,-0.0341,-0.0343,0,0,0,0,0,0,0,0.0107,0.0093,-0.0013,0.0006,-0.0002,-0.0041,-0.0055,-0.0111,-0.0187,-0.0128,-0.0132,-0.0136,-0.0241,-0.0282,-0.0291,-0.0379,-0.0335,-0.034,-0.0344,-0.0346,-0.0358,-0.0355,0,0,0,0,0,0,0.0142,0.01,-0.0008,-0.0017,0.0058,-0.0043,-0.0059,-0.0084,-0.0187,-0.02,-0.0137,-0.014,-0.0272,-0.0284,-0.0296,-0.0265,-0.0341,-0.0347,-0.035,-0.0361,-0.0357,-0.0354,0,0,0,0,0,0,0.0145,0.0133,-0.0002,0.0046,0.0027,-0.0045,-0.0073,-0.0087,-0.0123,-0.0193,-0.0207,-0.0156,-0.0272,-0.0288,-0.0314,-0.0274,-0.0349,-0.0354,-0.0365,-0.036,-0.0356,-0.0263,0,0,0,0,0,0,0.015,0.0134,0.0127,0.0047,0.0026,-0.0034,-0.0073,-0.009,-0.0124,-0.0129,-0.0214,-0.0226,-0.0273,-0.0305,-0.032,-0.0283,-0.0359,-0.0369,-0.0363,-0.0357,-0.027,-0.0256,-0.0244,0,0,0,0,0,0.0155,0.014,0.0127,0.0115,0.0018,-0.0032,-0.0048,-0.0101,-0.0124,-0.0135,-0.0176,-0.0223,-0.0276,-0.0309,-0.0327,-0.029,-0.0372,-0.0364,-0.0358,-0.0276,-0.0259,-0.0244,0,0,0,0,0,0,0.0196,0.0129,0.0113,0.0078,0.0041,-0.0043,-0.0057,-0.0097,-0.0145,-0.0145,-0.0216,-0.023,-0.023,-0.0267,-0.0301,-0.0266,-0.0319,-0.0316,-0.0251,-0.0235,-0.0222,-0.0139,-0.0364,0,0,0,0,0,0.0207,0.0184,0.012,0.0101,0.0083,0.0014,-0.0014,-0.0048,-0.0098,-0.0121,-0.0164,-0.0195,-0.0218,-0.0232,-0.026,-0.0268,-0.0304,-0.024,-0.0227,-0.0216,-0.0153,-0.0222,-0.0211,-0.0331,-0.0331,-0.0331,0,0,0.0225,0.0185,0.0174,0.0111,0.0073,0.0056,-0.0004,-0.0035,-0.0032,-0.0125,-0.0126,-0.0164,-0.0208,-0.0201,-0.0201,-0.0228,-0.0197,-0.0207,-0.0197,-0.0139,-0.0214,-0.0203,-0.0193,-0.0326,-0.0327,-0.0327,0,0,0.0248,0.021,0.0197,0.0176,0.0132,0.009,0.0089,0.0024,0.0013,-0.0004,-0.0044,-0.0042,-0.0103,-0.01,-0.0116,-0.0043,-0.013,-0.0052,0.0075,0.0005,0.0013,0.002,-0.0011,-0.0007,-0.0043,-0.0043,-0.0043,0,0.0273,0.0242,0.0191,0.0183,0.018,0.0115,0.0117,0.0093,0.0041,0.0062,0.0021,0.0016,-0.0043,0.0005,0.0041,-0.0013,-0.0059,0.0002,0.0018,0.0024,0.003,-0.0004,-0.0002,-0.0038,-0.0038,-0.0039,-0.0039,0,0.0286,0.0273,0.027,0.0242,0.0235,0.0224,0.0201,0.0207,0.0184,0.0174,0.022,0.0168,0.0181,0.016,0.0114,0.0162,0.0114,0.0029,-0.0033,0.0047,0.0007,0.0008,-0.003,-0.0032,-0.0033,-0.0035,0,0,0.0314,0.0279,0.0286,0.0299,0.0267,0.0268,0.0296,0.0308,0.0358,0.034,0.0413,0.0397,0.04,0.0392,0.0349,0.0311,0.0287,0.0207,0.02,0.0162,0.0156,0.0076,0.0068,0.0174,0.0175,0.0176,0.011,0,0.034,0.0342,0.0322,0.0362,0.0364,0.0356,0.04,0.0426,0.0433,0.0492,0.0495,0.0533,0.0477,0.0492,0.0456,0.0344,0.0296,0.0316,0.0102,0.0098,0.0002,0.0069,0.009,0.0029,0.0111,0.0111,0.0111,0,0.0373,0.0363,0.0394,0.0437,0.0444,0.0472,0.0555,0.0588,0.0658,0.0676,0.074,0.0726,0.0767,0.0651,0.0549,0.0558,0.0391,0.0278,0.0269,0.0178,0.0021,-0.0034,0.0027,0.0111,0.0111,0.0111,0.0111,0,0.0437,0.0438,0.0468,0.0479,0.0503,0.0551,0.0582,0.0655,0.0724,0.0809,0.0863,0.0895,0.091,0.076,0.0595,0.0544,0.0436,0.0303,0.0085,0.0077,0.0056,0.0045,0.0183,0.0183,0.0183,0.0183,0.0183,0,0.0484,0.0517,0.0503,0.0529,0.0609,0.0621,0.0736,0.0781,0.0876,0.0981,0.0981,0.1054,0.0922,0.0856,0.0661,0.0435,0.0479,0.0157,0.0063,0.009,0.0083,0.0121,0.0115,0.0181,0.0181,0.0182,0.0182,0,0.0563,0.0545,0.0592,0.062,0.0642,0.0716,0.082,0.091,0.098,0.1115,0.1153,0.1179,0.1077,0.094,0.0697,0.0507,0.029,0.0167,0.0245,0.0162,-0.0043,-0.0043,-0.0084,-0.0087,-0.009,-0.0092,-0.0094,0,0.0595,0.062,0.067,0.071,0.0724,0.0814,0.0891,0.097,0.1065,0.1183,0.1259,0.1219,0.1173,0.0871,0.0574,0.0264,0.0227,0.0039,-0.0075,0.0021,-0.0067,-0.0062,-0.0059,-0.0062,-0.0063,-0.0065,-0.0066,0,0.0657,0.0684,0.0721,0.0801,0.0875,0.0968,0.1071,0.1154,0.1259,0.1331,0.1397,0.1356,0.1087,0.0796,0.0409,0.0189,0.0107,-0.0006,0.0087,-0.001,0.0032,-0.0052,-0.0047,-0.0076,-0.0075,-0.0074,-0.0074,-0.0073,0.0713,0.0761,0.0819,0.0907,0.0994,0.1114,0.119,0.1278,0.1398,0.1484,0.1449,0.1364,0.1075,0.0538,0.0245,-0.0038,-0.0075,-0.0211,-0.0203,-0.0194,-0.0192,-0.0159,-0.0299,-0.0299,-0.03,-0.03,-0.03,0,0.0761,0.0826,0.0914,0.1025,0.1134,0.1171,0.1307,0.1361,0.1454,0.1499,0.1479,0.1178,0.0829,0.054,0.008,-0.0244,-0.0229,-0.0316,-0.0221,-0.0211,-0.0201,-0.0195,-0.0305,-0.0306,-0.0306,-0.0307,0,0,0.0788,0.088,0.0936,0.1125,0.1209,0.1337,0.1405,0.1457,0.1496,0.1493,0.1435,0.1282,0.091,0.0574,0.0195,-0.0041,-0.0053,-0.009,-0.0061,0.0105,0.0119,-0.0127,-0.0105,0,0,0,0,0]}],[{"header":{"parameterUnit":"m.s-1","parameterCategory":2,"la1":30.2991,"la2":30.254,"lo1":-89.0895,"lo2":-89.0444,"dy":0.0017,"dx":0.0017,"nx":28,"ny":28,"refTime":"2024-06-27T03:00:00:Z","depth":"4","parameterNumber":2,"parameterNumberName":"U-component_of_CURRENTS"},"data":[0,0,0,0,0,0,0,0,0,0,0,0,0,0,0,0,0,0,0,0,0,0,0,0,0,0,0,0,0,0,0,0,0,0,0,0,0,0,0,0,0,0,0,0,0,0,0,0,0,0,0,0,0,0,0,0,0,0,0.0003,0.0002,0,-0.0057,-0.0057,-0.0057,-0.0004,-0.0002,-0.0001,0.0,0.0042,0.0042,0.0041,0,0,0,0,0,0,0,0,0,0,0,0,0,0.0433,0.0424,0.0004,0.0002,0.0,-0.0057,-0.0057,-0.0057,-0.0004,-0.0002,-0.0001,0.0001,0.0042,0.0042,0.0041,0,0,0,0,0,0,0,0,0,0,0,0,0,0.0305,0.0421,0.0004,0.0013,0.0013,-0.0057,-0.0057,-0.0057,-0.0004,-0.0002,-0.0,0.0002,0.0042,0.0042,0.0041,0.0,0,0,0.0041,0.0041,0,0,0,0,0,0,0,0,0.0312,0.029,0.0013,0.0012,0.0011,-0.0029,0.0109,-0.0036,-0.0005,0.0012,0.0,0.0003,0.002,0.0022,0.0018,0.0002,0.0004,0.0041,0.0041,0.004,0.004,0,0,0,0,0,0,0,0.0321,0.0295,-0.0011,0.0011,0.001,0.0112,0.0094,0.0084,0.0015,0.0011,0.0012,-0.001,0.0022,0.0018,0.0019,0.0004,0.0041,0.0041,0.004,0.004,0.0052,0.0053,0,0,0,0,0,0,0.0291,0.03,-0.0009,-0.0014,0.0159,0.01,0.0082,-0.001,0.0012,0.0014,-0.0012,-0.0008,0.0017,0.0019,0.0021,0.0076,0.004,0.004,0.004,0.0052,0.0052,0.0053,0,0,0,0,0,0,0.0299,0.0261,-0.0007,0.0141,0.0113,0.0088,-0.0014,-0.0013,0.0017,-0.0008,-0.0001,0.002,0.0019,0.0021,0.0051,0.0075,0.004,0.004,0.0051,0.0052,0.0053,0.0121,0,0,0,0,0,0,0.031,0.0262,0.0226,0.0135,0.0102,-0.0026,-0.0017,-0.0016,-0.0007,0.0,0.0021,0.0025,0.002,0.0051,0.0051,0.0074,0.004,0.0051,0.0052,0.0052,0.0118,0.0124,0.0129,0,0,0,0,0,0.0325,0.0243,0.0223,0.0188,0.0035,-0.0027,-0.0032,-0.0032,-0.0007,0.0006,0.0031,0.0026,0.0056,0.0052,0.0051,0.0074,0.005,0.0051,0.0052,0.0116,0.0123,0.0129,0,0,0,0,0,0,0.0441,0.0237,0.0214,0.0083,0.0047,-0.0021,-0.0011,-0.0016,0.0011,0.0037,0.0034,0.0039,0.0065,0.0058,0.0053,0.0078,0.0051,0.0052,0.0099,0.0106,0.0111,0.0197,0.004,0,0,0,0,0,0.0434,0.0301,0.0188,0.0101,0.0082,0.0048,0.0037,0.0028,0.0016,0.0033,0.0055,0.0068,0.0058,0.0078,0.0069,0.0091,0.014,0.0103,0.0108,0.0113,0.0181,0.0353,0.0383,0.0056,0.0056,0.0056,0,0,0.0438,0.033,0.0249,0.0117,0.0097,0.008,0.0051,0.0031,0.0055,0.003,0.0108,0.0085,0.0063,0.0085,0.0097,0.0094,0.0196,0.0114,0.0119,0.0185,0.0358,0.039,0.042,0.0057,0.0057,0.0057,0,0,0.0419,0.0312,0.022,0.0194,0.0144,0.0124,0.0125,0.0088,0.0121,0.0156,0.0137,0.0141,0.016,0.0144,0.0133,0.0162,0.0209,0.0155,0.0273,0.0437,0.0468,0.0496,0.046,0.0486,0.0173,0.0174,0.0174,0,0.0503,0.0317,0.0211,0.0178,0.018,0.0151,0.015,0.0162,0.0158,0.0203,0.0202,0.0224,0.019,0.0202,0.0224,0.0177,0.0252,0.0247,0.0453,0.0483,0.0511,0.0469,0.0497,0.0177,0.0177,0.0176,0.0176,0,0.0385,0.0322,0.0295,0.0221,0.0225,0.0213,0.021,0.0257,0.03,0.0316,0.0368,0.0325,0.0356,0.0312,0.0292,0.0431,0.04,0.0432,0.0453,0.055,0.0494,0.0522,0.0182,0.0181,0.018,0.0179,0,0,0.044,0.0246,0.0256,0.0265,0.0253,0.0248,0.0318,0.036,0.0441,0.0457,0.0553,0.0514,0.0526,0.0517,0.046,0.0592,0.0766,0.0641,0.0648,0.0631,0.1054,0.0908,0.0921,0.0908,0.0916,0.0923,0.0886,0,0.0448,0.0322,0.0259,0.0297,0.0279,0.0326,0.0403,0.0461,0.0527,0.0622,0.0599,0.0658,0.059,0.0617,0.0737,0.0718,0.0871,0.0767,0.0944,0.0945,0.0832,0.0962,0.0949,0.0906,0.0912,0.0917,0.092,0,0.0399,0.0328,0.0271,0.0333,0.0347,0.0409,0.056,0.0624,0.0739,0.08,0.0863,0.0862,0.0893,0.0921,0.1013,0.0977,0.1095,0.1115,0.1115,0.101,0.0859,0.0822,0.097,0.0966,0.0962,0.0959,0.0956,0,0.0428,0.0399,0.0342,0.0348,0.038,0.0476,0.0569,0.0699,0.0788,0.0942,0.1009,0.105,0.1073,0.1212,0.1136,0.1183,0.127,0.1308,0.1278,0.1257,0.1365,0.1337,0.1613,0.1613,0.1613,0.1613,0.1614,0,0.0438,0.0465,0.0366,0.0349,0.0452,0.0522,0.0692,0.0793,0.0947,0.1035,0.1119,0.1142,0.1222,0.1205,0.1215,0.1205,0.1319,0.1344,0.131,0.136,0.1335,0.1373,0.1346,0.1612,0.1612,0.1612,0.1613,0,0.0488,0.0392,0.0369,0.0379,0.0442,0.053,0.0751,0.0851,0.1018,0.1133,0.1192,0.1263,0.1246,0.1188,0.1307,0.1272,0.1279,0.1317,0.1201,0.1149,0.1142,0.1118,0.1325,0.1321,0.1318,0.1315,0.1313,0,0.0488,0.0438,0.0353,0.0374,0.0412,0.0565,0.0673,0.0872,0.0944,0.1137,0.1139,0.1238,0.1245,0.117,0.1174,0.1135,0.1215,0.1188,0.1388,0.1203,0.1148,0.1129,0.111,0.1308,0.1307,0.1306,0.1305,0,0.055,0.0463,0.0372,0.0333,0.0425,0.0531,0.0688,0.0752,0.0943,0.1064,0.1148,0.1206,0.1193,0.1155,0.1121,0.1111,0.1146,0.1157,0.117,0.136,0.1184,0.1128,0.1113,0.1294,0.1295,0.1296,0.1297,0,0.061,0.0503,0.032,0.0349,0.0398,0.0489,0.0586,0.0703,0.0829,0.1033,0.1018,0.1099,0.1167,0.1142,0.1043,0.1029,0.1147,0.12,0.1214,0.1227,0.1213,0.0976,0.1051,0,0,0,0,0,0.069,0.0534,0.0424,0.0372,0.039,0.0479,0.0578,0.0658,0.0802,0.0864,0.0985,0.0976,0.1031,0.1022,0.101,0.0997,0.1092,0.0978,0.1146,0.1231,0.1244,0.1235,0,0,0,0,0,0,0.0709,0.0566,0.0381,0.0404,0.0427,0.0493,0.0573,0.0667,0.0698,0.084,0.0836,0.0981,0.0968,0.1054,0.102,0.1019,0.1125,0.1023,0.1023,0.1224,0.1235,0.1246,0.1242,0,0,0,0,0]},{"header":{"parameterUnit":"m.s-1","parameterCategory":2,"la1":30.2991,"la2":30.254,"lo1":-89.0895,"lo2":-89.0444,"dy":0.0017,"dx":0.0017,"nx":28,"ny":28,"refTime":"2024-06-27T03:00:00:Z","depth":"4","parameterNumber":3,"parameterNumberName":"V-component_of_CURRENTS"},"data":[0,0,0,0,0,0,0,0,0,0,0,0,0,0,0,0,0,0,0,0,0,0,0,0,0,0,0,0,0,0,0,0,0,0,0,0,0,0,0,0,0,0,0,0,0,0,0,0,0,0,0,0,0,0,0,0,0,0,0.0416,0.0415,0,0.0343,0.0342,0.0341,0.0357,0.0358,0.036,0.0361,0.0212,0.0207,0.0202,0,0,0,0,0,0,0,0,0,0,0,0,0,0.0306,0.0309,0.0416,0.0415,0.0414,0.0343,0.0342,0.0341,0.0357,0.0358,0.036,0.0362,0.0214,0.0208,0.0201,0,0,0,0,0,0,0,0,0,0,0,0,0,0.0304,0.031,0.0416,0.0415,0.0414,0.0344,0.0342,0.0341,0.0356,0.0358,0.0361,0.0363,0.0216,0.0208,0.02,0.0105,0,0,0.0176,0.0172,0,0,0,0,0,0,0,0,0.0305,0.0308,0.0416,0.0415,0.0414,0.0363,0.0249,0.0259,0.0356,0.0376,0.0361,0.0364,0.0255,0.0244,0.0224,0.0098,0.0092,0.0175,0.017,0.0167,0.0164,0,0,0,0,0,0,0,0.0305,0.031,0.0385,0.0415,0.0414,0.0328,0.0333,0.025,0.0301,0.0375,0.0376,0.037,0.0254,0.0232,0.022,0.009,0.0175,0.0168,0.0163,0.016,-0.0127,-0.0129,0,0,0,0,0,0,0.033,0.0312,0.0387,0.0383,0.0366,0.033,0.0334,0.0375,0.0303,0.0296,0.0368,0.0371,0.0244,0.023,0.0215,0.0098,0.0167,0.0159,0.0155,-0.0124,-0.0127,-0.013,0,0,0,0,0,0,0.0328,0.0339,0.039,0.0343,0.0345,0.0331,0.0375,0.0373,0.0375,0.03,0.0291,0.0377,0.0246,0.0226,0.0134,0.0093,0.0156,0.0148,-0.0121,-0.0125,-0.0129,-0.0137,0,0,0,0,0,0,0.0326,0.034,0.0378,0.0348,0.0349,0.0363,0.0373,0.037,0.0367,0.0371,0.0302,0.0291,0.0246,0.0147,0.0126,0.0083,0.0142,-0.0117,-0.0122,-0.0127,-0.0133,-0.0141,-0.0147,0,0,0,0,0,0.0323,0.0362,0.0382,0.039,0.0404,0.0363,0.0355,0.0348,0.0366,0.036,0.03,0.0294,0.01,0.0137,0.0114,0.0068,-0.0114,-0.0121,-0.0127,-0.013,-0.0139,-0.0147,0,0,0,0,0,0,0.0313,0.0366,0.0388,0.0439,0.0412,0.0367,0.0365,0.0356,0.0305,0.0315,0.0251,0.0231,0.0135,0.0096,0.0139,-0.0032,-0.0007,-0.0018,-0.0001,-0.0011,-0.0018,-0.0026,0.0135,0,0,0,0,0,0.0335,0.0397,0.0394,0.0427,0.0428,0.04,0.0386,0.0379,0.0329,0.0314,0.0247,0.0172,0.0083,0.0039,-0.0042,-0.0141,-0.0142,-0.0186,-0.0193,-0.0198,-0.0223,-0.0214,-0.0221,-0.0151,-0.0151,-0.015,0,0,0.0323,0.0373,0.0396,0.0431,0.0419,0.0404,0.0398,0.0385,0.0346,0.0297,0.0216,0.0144,0.0051,-0.0058,-0.0104,-0.0091,-0.0227,-0.0206,-0.021,-0.0233,-0.0221,-0.0228,-0.0233,-0.0155,-0.0154,-0.0153,0,0,0.0338,0.0394,0.045,0.0439,0.0446,0.0414,0.0418,0.0371,0.0335,0.0239,0.0191,0.0084,-0.0039,-0.0131,-0.0188,-0.029,-0.0261,-0.0298,-0.0346,-0.0336,-0.0341,-0.0344,-0.0369,-0.0375,-0.0302,-0.0302,-0.0302,0,0.0329,0.0413,0.0439,0.0474,0.0458,0.0426,0.0425,0.0366,0.0278,0.0216,0.0216,-0.0012,-0.0088,-0.0239,-0.0281,-0.0309,-0.0286,-0.0297,-0.034,-0.0344,-0.0347,-0.0371,-0.0378,-0.0303,-0.0303,-0.0303,-0.0303,0,0.036,0.0431,0.0448,0.0499,0.047,0.046,0.0393,0.0331,0.0275,0.0196,0.0037,-0.0088,-0.0219,-0.0268,-0.0315,-0.0406,-0.0377,-0.0338,-0.0302,-0.0354,-0.0378,-0.0384,-0.0305,-0.0305,-0.0304,-0.0304,0,0,0.0338,0.0458,0.0462,0.0508,0.0488,0.0466,0.038,0.0281,0.0221,0.0085,-0.0028,-0.0223,-0.0284,-0.0356,-0.0428,-0.0457,-0.0487,-0.0407,-0.0406,-0.0407,-0.0464,-0.0425,-0.0429,-0.0409,-0.041,-0.0411,-0.0473,0,0.0358,0.0457,0.0478,0.0504,0.0543,0.0472,0.0394,0.0288,0.0176,0.0046,-0.0126,-0.024,-0.0315,-0.0362,-0.0423,-0.0512,-0.0501,-0.0476,-0.0439,-0.044,-0.0375,-0.0434,-0.0414,-0.0478,-0.0479,-0.048,-0.0481,0,0.0368,0.0458,0.0524,0.0562,0.056,0.0544,0.0422,0.0349,0.015,0.0063,-0.0107,-0.022,-0.0423,-0.038,-0.0559,-0.0523,-0.048,-0.0504,-0.0504,-0.0473,-0.0413,-0.0417,-0.0492,-0.0491,-0.049,-0.049,-0.0489,0,0.0368,0.046,0.0532,0.0543,0.0573,0.0554,0.0515,0.0355,0.0292,0.0096,0.0033,-0.0222,-0.0319,-0.0391,-0.0529,-0.0504,-0.0641,-0.0601,-0.0514,-0.0512,-0.0518,-0.0513,-0.0567,-0.0567,-0.0566,-0.0566,-0.0566,0,0.0376,0.0429,0.056,0.0612,0.0646,0.0619,0.0591,0.0496,0.0367,0.0271,0.0076,-0.0048,-0.0293,-0.0437,-0.0522,-0.0608,-0.063,-0.0552,-0.0526,-0.0527,-0.0522,-0.0523,-0.0517,-0.0569,-0.0568,-0.0568,-0.0567,0,0.035,0.045,0.0567,0.0659,0.0684,0.0703,0.0702,0.0653,0.0547,0.0417,0.0371,0.0086,-0.0133,-0.0349,-0.05,-0.0563,-0.0654,-0.0594,-0.0637,-0.0608,-0.0533,-0.0528,-0.0575,-0.0574,-0.0574,-0.0573,-0.0573,0,0.036,0.043,0.0612,0.0702,0.0765,0.0811,0.0818,0.0748,0.0662,0.0479,0.0377,0.0189,-0.0014,-0.0269,-0.0468,-0.0641,-0.0574,-0.0613,-0.0553,-0.0565,-0.0535,-0.0531,-0.0526,-0.0572,-0.0571,-0.0571,-0.0571,0,0.0369,0.0443,0.054,0.0735,0.0829,0.0881,0.0862,0.0822,0.0681,0.0631,0.0412,0.0248,0.0025,-0.0254,-0.0348,-0.046,-0.0659,-0.0605,-0.0606,-0.0549,-0.056,-0.0531,-0.0527,-0.0569,-0.0569,-0.0569,-0.0569,0,0.0379,0.0417,0.0571,0.0721,0.0848,0.0867,0.0881,0.0788,0.073,0.0514,0.0447,0.0215,0.0058,-0.0149,-0.0292,-0.0401,-0.0389,-0.038,-0.0392,-0.0396,-0.0328,-0.0315,-0.0244,0,0,0,0,0,0.0388,0.04,0.0533,0.0688,0.081,0.0872,0.0846,0.0822,0.0705,0.0587,0.0523,0.0322,0.0097,-0.006,-0.0149,-0.0274,-0.0424,-0.0381,-0.0422,-0.0555,-0.0558,-0.0505,0,0,0,0,0,0,0.039,0.0469,0.0502,0.0628,0.0719,0.08,0.0796,0.0736,0.063,0.0531,0.0393,0.0352,0.0101,0.017,-0.0133,-0.0178,-0.0203,-0.0496,-0.0496,-0.0554,-0.0556,-0.0558,-0.0505,0,0,0,0,0]}]]